When you browse on this site, cookies collect data to enhance your experience and personalize the content and advertising you see.
Visit our Privacy Policy to learn more. By continuing to use the site, you agree to this use of cookies and data.
  • In Österreich
  • Länderverzeichnis
  • Für 7 Tage
  • Wassertemperatur
  • Satellitenkarten
  • Wetterkarte
  • News
  • Widgets
  • user-avatar
    Anmelden

    Stündliche Wetter Lemnos

    Heute, 21 November, Mittwoch

    Zeit Temperatur Niederschläge Wind Luftdruck Luftfeuchtigkeit
    00:00 +17°C° 0.3 mm 7 m/S 758 mmHg 93%
    01:00 +17°C° 0.3 mm 7 m/S 757 mmHg 93%
    02:00 +17°C° 0 mm 8 m/S 757 mmHg 94%
    03:00 +17°C° 0.7 mm 8 m/S 756 mmHg 94%
    04:00 +17°C° 0.7 mm 8 m/S 756 mmHg 94%
    05:00 +17°C° 0.7 mm 8 m/S 755 mmHg 94%
    06:00 +17°C° 2.3 mm 8 m/S 755 mmHg 93%
    07:00 +17°C° 2.3 mm 8 m/S 754 mmHg 91%
    08:00 +17°C° 2.3 mm 8 m/S 754 mmHg 89%
    09:00 +18°C° 1.8 mm 7 m/S 754 mmHg 85%
    10:00 +18°C° 1.8 mm 7 m/S 753 mmHg 80%
    11:00 +20°C° 1.8 mm 6 m/S 753 mmHg 76%
    12:00 +20°C° 0.1 mm 6 m/S 753 mmHg 73%
    13:00 +20°C° 0.1 mm 6 m/S 753 mmHg 71%
    14:00 +20°C° 0.1 mm 5 m/S 753 mmHg 68%
    15:00 +20°C° 0 mm 5 m/S 753 mmHg 70%
    16:00 +19°C° 0 mm 5 m/S 753 mmHg 71%
    17:00 +19°C° 0 mm 5 m/S 753 mmHg 73%
    18:00 +19°C° 0.1 mm 4 m/S 753 mmHg 74%
    19:00 +18°C° 0.1 mm 4 m/S 754 mmHg 75%
    20:00 +18°C° 0.1 mm 3 m/S 754 mmHg 76%
    21:00 +18°C° 0.2 mm 4 m/S 754 mmHg 72%
    22:00 +17°C° 0.2 mm 4 m/S 755 mmHg 69%
    23:00 +17°C° 0.2 mm 4 m/S 755 mmHg 66%

    Morgen, 22 November, Donnerstag

    Zeit Temperatur Niederschläge Wind Luftdruck Luftfeuchtigkeit
    00:00 +17°C° 0.1 mm 4 m/S 755 mmHg 64%
    01:00 +16°C° 0.1 mm 5 m/S 756 mmHg 63%
    02:00 +16°C° 0.1 mm 5 m/S 756 mmHg 61%
    03:00 +15°C° 0.2 mm 6 m/S 756 mmHg 64%
    04:00 +15°C° 0.2 mm 7 m/S 756 mmHg 68%
    05:00 +14°C° 0.2 mm 7 m/S 757 mmHg 71%
    06:00 +13°C° 0.2 mm 8 m/S 757 mmHg 73%
    07:00 +13°C° 0.2 mm 8 m/S 758 mmHg 75%
    08:00 +13°C° 0.2 mm 8 m/S 758 mmHg 77%
    09:00 +13°C° 0.3 mm 8 m/S 758 mmHg 75%
    10:00 +15°C° 0.3 mm 8 m/S 759 mmHg 73%
    11:00 +15°C° 0.3 mm 8 m/S 759 mmHg 71%
    12:00 +15°C° 0.3 mm 8 m/S 759 mmHg 71%
    13:00 +15°C° 0.3 mm 8 m/S 759 mmHg 70%
    14:00 +15°C° 0.3 mm 8 m/S 759 mmHg 70%
    15:00 +13°C° 0.2 mm 9 m/S 760 mmHg 71%
    16:00 +13°C° 0.2 mm 9 m/S 760 mmHg 73%
    17:00 +13°C° 0.2 mm 10 m/S 761 mmHg 75%
    18:00 +12°C° 0.1 mm 10 m/S 761 mmHg 75%
    19:00 +12°C° 0.1 mm 10 m/S 762 mmHg 75%
    20:00 +12°C° 0.1 mm 10 m/S 762 mmHg 76%
    21:00 +12°C° 0 mm 10 m/S 762 mmHg 75%
    22:00 +12°C° 0 mm 10 m/S 763 mmHg 74%
    23:00 +12°C° 0 mm 10 m/S 763 mmHg 74%

    übermorgen, 23 November, Freitag

    Zeit Temperatur Niederschläge Wind Luftdruck Luftfeuchtigkeit
    00:00 +12°C° 0 mm 9 m/S 763 mmHg 73%
    01:00 +12°C° 0 mm 9 m/S 763 mmHg 72%
    02:00 +12°C° 0 mm 9 m/S 763 mmHg 71%
    03:00 +11°C° 0 mm 9 m/S 763 mmHg 71%
    04:00 +11°C° 0 mm 9 m/S 764 mmHg 71%
    05:00 +11°C° 0 mm 9 m/S 764 mmHg 70%
    06:00 +11°C° 0 mm 9 m/S 764 mmHg 70%
    07:00 +11°C° 0 mm 9 m/S 765 mmHg 69%
    08:00 +11°C° 0 mm 9 m/S 765 mmHg 69%
    09:00 +11°C° 0 mm 9 m/S 765 mmHg 68%
    10:00 +11°C° 0 mm 9 m/S 766 mmHg 67%
    11:00 +12°C° 0 mm 9 m/S 766 mmHg 66%
    12:00 +12°C° 0 mm 8 m/S 766 mmHg 64%
    13:00 +12°C° 0 mm 8 m/S 766 mmHg 62%
    14:00 +12°C° 0 mm 8 m/S 765 mmHg 61%
    15:00 +12°C° 0 mm 8 m/S 765 mmHg 61%
    16:00 +11°C° 0 mm 8 m/S 766 mmHg 61%
    17:00 +11°C° 0 mm 9 m/S 766 mmHg 62%
    18:00 +11°C° 0 mm 9 m/S 766 mmHg 60%
    19:00 +11°C° 0 mm 9 m/S 766 mmHg 57%
    20:00 +11°C° 0 mm 9 m/S 766 mmHg 55%
    21:00 +11°C° 0 mm 9 m/S 766 mmHg 54%
    22:00 +11°C° 0 mm 9 m/S 767 mmHg 53%
    23:00 +11°C° 0 mm 9 m/S 767 mmHg 52%

    24 November, Samstag

    Zeit Temperatur Niederschläge Wind Luftdruck Luftfeuchtigkeit
    00:00 +11°C° 0 mm 9 m/S 766 mmHg 54%
    01:00 +11°C° 0 mm 9 m/S 766 mmHg 55%
    02:00 +10°C° 0 mm 9 m/S 766 mmHg 57%
    03:00 +10°C° 0 mm 9 m/S 766 mmHg 59%
    04:00 +10°C° 0 mm 9 m/S 765 mmHg 60%
    05:00 +10°C° 0 mm 9 m/S 765 mmHg 62%
    06:00 +10°C° 0 mm 9 m/S 765 mmHg 63%
    07:00 +10°C° 0 mm 8 m/S 765 mmHg 64%
    08:00 +10°C° 0 mm 8 m/S 765 mmHg 65%
    09:00 +10°C° 0 mm 8 m/S 765 mmHg 64%
    10:00 +11°C° 0 mm 8 m/S 765 mmHg 62%
    11:00 +11°C° 0 mm 7 m/S 765 mmHg 61%
    12:00 +11°C° 0 mm 7 m/S 764 mmHg 60%
    13:00 +11°C° 0 mm 6 m/S 764 mmHg 60%
    14:00 +11°C° 0 mm 6 m/S 764 mmHg 59%
    15:00 +12°C° 0 mm 5 m/S 763 mmHg 61%
    16:00 +12°C° 0 mm 5 m/S 763 mmHg 63%
    17:00 +11°C° 0 mm 4 m/S 763 mmHg 64%
    18:00 +11°C° 0 mm 4 m/S 763 mmHg 64%
    19:00 +11°C° 0 mm 4 m/S 763 mmHg 65%
    20:00 +11°C° 0 mm 3 m/S 763 mmHg 65%
    21:00 +11°C° 0 mm 3 m/S 763 mmHg 65%
    22:00 +11°C° 0 mm 3 m/S 762 mmHg 65%
    23:00 +11°C° 0 mm 3 m/S 762 mmHg 65%

    25 November, Sonntag

    Zeit Temperatur Niederschläge Wind Luftdruck Luftfeuchtigkeit
    00:00 +12°C° 0 mm 2 m/S 762 mmHg 65%
    01:00 +12°C° 0 mm 2 m/S 762 mmHg 66%
    02:00 +12°C° 0 mm 1 m/S 762 mmHg 67%
    03:00 +12°C° 0 mm 1 m/S 761 mmHg 68%
    04:00 +12°C° 0 mm 1 m/S 761 mmHg 69%
    05:00 +12°C° 0 mm 1 m/S 761 mmHg 70%
    06:00 +13°C° 0 mm 1 m/S 761 mmHg 70%
    07:00 +13°C° 0 mm 1 m/S 761 mmHg 71%
    08:00 +13°C° 0 mm 1 m/S 761 mmHg 71%
    09:00 +14°C° 0 mm 1 m/S 761 mmHg 70%
    10:00 +15°C° 0 mm 2 m/S 760 mmHg 68%
    11:00 +15°C° 0 mm 2 m/S 760 mmHg 67%
    12:00 +16°C° 0 mm 3 m/S 760 mmHg 66%
    13:00 +16°C° 0 mm 3 m/S 759 mmHg 66%
    14:00 +16°C° 0 mm 3 m/S 759 mmHg 66%
    15:00 +16°C° 0 mm 3 m/S 758 mmHg 68%
    16:00 +15°C° 0 mm 4 m/S 758 mmHg 71%
    17:00 +14°C° 0 mm 4 m/S 758 mmHg 73%
    18:00 +15°C° 0 mm 4 m/S 758 mmHg 74%
    19:00 +15°C° 0 mm 5 m/S 758 mmHg 75%
    20:00 +15°C° 0 mm 5 m/S 758 mmHg 76%
    21:00 +15°C° 0 mm 5 m/S 757 mmHg 78%
    22:00 +15°C° 0 mm 6 m/S 757 mmHg 80%
    23:00 +15°C° 0 mm 6 m/S 757 mmHg 83%

    26 November, Montag

    Zeit Temperatur Niederschläge Wind Luftdruck Luftfeuchtigkeit
    00:00 +15°C° 0.2 mm 6 m/S 756 mmHg 84%
    01:00 +15°C° 0.2 mm 6 m/S 756 mmHg 85%
    02:00 +15°C° 0.2 mm 7 m/S 756 mmHg 86%
    03:00 +15°C° 0.7 mm 7 m/S 755 mmHg 87%
    04:00 +15°C° 0.7 mm 7 m/S 754 mmHg 88%
    05:00 +15°C° 0.7 mm 6 m/S 754 mmHg 89%
    06:00 +15°C° 1.3 mm 7 m/S 753 mmHg 89%
    07:00 +14°C° 1.3 mm 7 m/S 753 mmHg 90%
    08:00 +13°C° 1.3 mm 8 m/S 753 mmHg 91%
    09:00 +15°C° 2.2 mm 8 m/S 752 mmHg 90%
    10:00 +15°C° 2.2 mm 9 m/S 752 mmHg 89%
    11:00 +15°C° 2.2 mm 9 m/S 751 mmHg 88%
    12:00 +14°C° 2.5 mm 10 m/S 751 mmHg 86%
    13:00 +16°C° 2.5 mm 10 m/S 750 mmHg 83%
    14:00 +16°C° 2.5 mm 10 m/S 749 mmHg 81%
    15:00 +16°C° 0.8 mm 9 m/S 749 mmHg 82%
    16:00 +15°C° 0.8 mm 8 m/S 749 mmHg 83%
    17:00 +15°C° 0.8 mm 7 m/S 749 mmHg 84%
    18:00 +15°C° 0.3 mm 7 m/S 750 mmHg 79%
    19:00 +14°C° 0.3 mm 7 m/S 750 mmHg 74%
    20:00 +14°C° 0.3 mm 7 m/S 751 mmHg 68%
    21:00 +14°C° 0 mm 6 m/S 751 mmHg 68%
    22:00 +14°C° 0 mm 6 m/S 752 mmHg 67%
    23:00 +14°C° 0 mm 5 m/S 752 mmHg 67%
    Mehr zeigen